TimeCST,TemperatureF,Dew PointF,Humidity,Sea Level PressureIn,VisibilityMPH,Wind Direction,Wind SpeedMPH,Gust SpeedMPH,PrecipitationIn,Events,Conditions,WindDirDegrees,DateUTC
12:06 AM,-14.8,-20.2,77,30.27,10.0,Calm,Calm,-,N/A,,Clear,0,2013-12-30 06:06:00
12:25 AM,-16.6,-20.2,84,30.27,10.0,Calm,Calm,-,N/A,,Clear,0,2013-12-30 06:25:00
12:46 AM,-16.6,-20.2,84,30.26,10.0,SW,3.5,-,N/A,,Clear,220,2013-12-30 06:46:00
1:06 AM,-16.6,-20.2,84,30.26,10.0,SSW,4.6,-,N/A,,Clear,210,2013-12-30 07:06:00
1:25 AM,-16.6,-20.2,84,30.26,10.0,Calm,Calm,-,N/A,,Clear,0,2013-12-30 07:25:00
1:46 AM,-16.6,-20.2,84,30.25,10.0,SW,4.6,-,N/A,,Clear,220,2013-12-30 07:46:00
2:05 AM,-16.6,-20.2,84,30.25,10.0,SW,3.5,-,N/A,,Clear,220,2013-12-30 08:05:00
2:25 AM,-18.4,-23.8,76,30.25,10.0,Calm,Calm,-,N/A,,Clear,0,2013-12-30 08:25:00
2:46 AM,-18.4,-22.0,84,30.24,10.0,Calm,Calm,-,N/A,,Clear,0,2013-12-30 08:46:00
3:05 AM,-18.4,-22.0,84,30.25,10.0,Calm,Calm,-,N/A,,Clear,0,2013-12-30 09:05:00
3:25 AM,-18.4,-22.0,84,30.24,10.0,Calm,Calm,-,N/A,,Clear,0,2013-12-30 09:25:00
3:46 AM,-18.4,-22.0,84,30.23,10.0,Calm,Calm,-,N/A,,Clear,0,2013-12-30 09:46:00
4:05 AM,-16.6,-20.2,84,30.22,10.0,Calm,Calm,-,N/A,,Clear,0,2013-12-30 10:05:00
4:26 AM,-16.6,-20.2,84,30.22,10.0,SW,3.5,-,N/A,,Clear,220,2013-12-30 10:26:00
4:46 AM,-16.6,-20.2,84,30.22,10.0,Calm,Calm,-,N/A,,Clear,0,2013-12-30 10:46:00
5:05 AM,-16.6,-20.2,84,30.22,10.0,Calm,Calm,-,N/A,,Clear,0,2013-12-30 11:05:00
5:26 AM,-16.6,-20.2,84,30.22,10.0,Calm,Calm,-,N/A,,Clear,0,2013-12-30 11:26:00
5:46 AM,-18.4,-22.0,84,30.21,10.0,Calm,Calm,-,N/A,,Clear,0,2013-12-30 11:46:00
6:05 AM,-18.4,-23.8,76,30.22,10.0,Calm,Calm,-,N/A,,Clear,0,2013-12-30 12:05:00
6:26 AM,-18.4,-22.0,84,30.22,10.0,Calm,Calm,-,N/A,,Clear,0,2013-12-30 12:26:00
6:45 AM,-18.4,-22.0,84,30.21,10.0,SSE,3.5,-,N/A,,Clear,160,2013-12-30 12:45:00
7:05 AM,-16.6,-22.0,76,30.21,10.0,Calm,Calm,-,N/A,,Unknown,0,2013-12-30 13:05:00
7:26 AM,-16.6,-20.2,84,30.21,10.0,Calm,Calm,-,N/A,,Mostly Cloudy,0,2013-12-30 13:26:00
7:45 AM,-14.8,-18.4,84,30.21,10.0,East,3.5,-,N/A,,Mostly Cloudy,90,2013-12-30 13:45:00
8:05 AM,-14.8,-18.4,84,30.21,10.0,Calm,Calm,-,N/A,,Scattered Clouds,0,2013-12-30 14:05:00
8:26 AM,-13.0,-16.6,84,30.22,5.0,Calm,Calm,-,N/A,,Clear,0,2013-12-30 14:26:00
8:45 AM,-11.2,-16.6,77,30.23,3.0,Calm,Calm,-,N/A,Snow,Light Snow,0,2013-12-30 14:45:00
9:05 AM,-11.2,-14.8,84,30.24,4.0,Calm,Calm,-,N/A,Snow,Light Snow,0,2013-12-30 15:05:00
9:26 AM,-9.4,-14.8,77,30.24,4.0,Calm,Calm,-,N/A,Snow,Light Snow,0,2013-12-30 15:26:00
9:45 AM,-7.6,-13.0,77,30.25,2.5,Calm,Calm,-,N/A,Snow,Light Snow,0,2013-12-30 15:45:00
10:05 AM,-7.6,-11.2,84,30.24,1.2,SE,4.6,-,N/A,Snow,Light Snow,140,2013-12-30 16:05:00
10:26 AM,-5.8,-11.2,77,30.24,1.5,SSE,3.5,-,N/A,Snow,Light Snow,150,2013-12-30 16:26:00
10:45 AM,-5.8,-11.2,77,30.23,1.0,SE,4.6,-,N/A,Snow,Light Snow,140,2013-12-30 16:45:00
11:05 AM,-5.8,-9.4,84,30.22,1.2,SE,4.6,-,N/A,Snow,Light Snow,130,2013-12-30 17:05:00
11:26 AM,-4.0,-9.4,78,30.20,1.0,SE,5.8,-,N/A,Snow,Light Snow,130,2013-12-30 17:26:00
11:45 AM,-4.0,-7.6,85,30.19,1.2,ESE,4.6,-,N/A,Snow,Light Snow,110,2013-12-30 17:45:00
12:05 PM,-2.2,-7.6,78,30.18,1.5,ESE,5.8,-,N/A,Snow,Light Snow,110,2013-12-30 18:05:00
12:26 PM,-2.2,-5.8,85,30.16,1.0,ESE,5.8,-,N/A,Snow,Light Snow,120,2013-12-30 18:26:00
12:45 PM,-0.4,-5.8,78,30.15,1.0,ESE,5.8,-,N/A,Snow,Light Snow,110,2013-12-30 18:45:00
1:05 PM,-0.4,-5.8,78,30.15,1.5,East,5.8,-,N/A,Snow,Light Snow,80,2013-12-30 19:05:00
1:26 PM,-0.4,-5.8,78,30.14,1.8,East,6.9,-,N/A,Snow,Light Snow,80,2013-12-30 19:26:00
1:45 PM,-0.4,-5.8,78,30.14,1.5,East,5.8,-,N/A,Snow,Light Snow,90,2013-12-30 19:45:00
2:05 PM,-0.4,-5.8,78,30.15,0.8,East,4.6,-,N/A,Snow,Light Snow,80,2013-12-30 20:05:00
2:26 PM,-0.4,-5.8,78,30.15,1.5,ENE,5.8,-,N/A,Snow,Light Snow,60,2013-12-30 20:26:00
2:45 PM,-0.4,-5.8,78,30.16,1.2,ENE,5.8,-,N/A,Snow,Light Snow,60,2013-12-30 20:45:00
3:06 PM,-0.4,-5.8,78,30.16,0.8,ENE,4.6,-,N/A,Snow,Light Snow,70,2013-12-30 21:06:00
3:26 PM,-0.4,-5.8,78,30.15,0.8,East,5.8,-,N/A,Snow,Light Snow,80,2013-12-30 21:26:00
3:45 PM,-0.4,-5.8,78,30.15,3.0,ENE,5.8,-,N/A,Snow,Light Snow,70,2013-12-30 21:45:00
4:05 PM,-0.4,-5.8,78,30.16,4.0,ENE,4.6,-,N/A,Snow,Light Snow,70,2013-12-30 22:05:00
4:25 PM,-2.2,-5.8,85,30.16,1.5,ENE,4.6,-,N/A,Snow,Light Snow,70,2013-12-30 22:25:00
4:46 PM,-2.2,-5.8,85,30.16,1.8,East,3.5,-,N/A,Snow,Light Snow,80,2013-12-30 22:46:00
5:05 PM,-2.2,-5.8,85,30.15,3.0,East,5.8,-,N/A,Snow,Light Snow,80,2013-12-30 23:05:00
5:25 PM,-2.2,-5.8,85,30.16,2.5,ENE,4.6,-,N/A,Snow,Light Snow,70,2013-12-30 23:25:00
5:46 PM,-2.2,-5.8,85,30.17,7.0,Calm,Calm,-,N/A,Snow,Light Snow,0,2013-12-30 23:46:00
6:05 PM,-2.2,-5.8,85,30.18,5.0,Calm,Calm,-,N/A,Snow,Light Snow,0,2013-12-31 00:05:00
6:25 PM,-2.2,-5.8,85,30.18,3.0,Calm,Calm,-,N/A,Snow,Light Snow,0,2013-12-31 00:25:00
6:46 PM,-4.0,-5.8,92,30.19,4.0,Calm,Calm,-,N/A,Snow,Light Snow,0,2013-12-31 00:46:00
7:05 PM,-2.2,-5.8,85,30.20,7.0,Calm,Calm,-,N/A,,Overcast,0,2013-12-31 01:05:00
7:26 PM,-2.2,-5.8,85,30.21,10.0,North,3.5,-,N/A,,Overcast,10,2013-12-31 01:26:00
7:45 PM,-2.2,-5.8,85,30.20,10.0,Calm,Calm,-,N/A,,Overcast,0,2013-12-31 01:45:00
8:05 PM,-2.2,-5.8,85,30.19,10.0,Calm,Calm,-,N/A,Snow,Light Snow,0,2013-12-31 02:05:00
8:26 PM,-2.2,-5.8,85,30.19,10.0,Calm,Calm,-,N/A,Snow,Light Snow,0,2013-12-31 02:26:00
8:45 PM,-2.2,-5.8,85,30.19,7.0,Calm,Calm,-,N/A,Snow,Light Snow,0,2013-12-31 02:45:00
9:06 PM,-2.2,-5.8,85,30.18,10.0,Calm,Calm,-,N/A,Snow,Light Snow,0,2013-12-31 03:06:00
9:25 PM,-2.2,-5.8,85,30.18,10.0,Calm,Calm,-,N/A,,Overcast,0,2013-12-31 03:25:00
9:45 PM,-2.2,-5.8,85,30.19,10.0,Calm,Calm,-,N/A,,Overcast,0,2013-12-31 03:45:00
10:06 PM,-2.2,-5.8,85,30.19,10.0,Calm,Calm,-,N/A,Snow,Light Snow,0,2013-12-31 04:06:00
10:25 PM,-2.2,-5.8,85,30.19,7.0,Calm,Calm,-,N/A,Snow,Light Snow,0,2013-12-31 04:25:00
10:46 PM,-2.2,-5.8,85,30.18,7.0,Calm,Calm,-,N/A,Snow,Light Snow,0,2013-12-31 04:46:00
11:05 PM,-5.8,-7.6,92,30.18,7.0,West,3.5,-,N/A,,Scattered Clouds,280,2013-12-31 05:05:00
11:25 PM,-5.8,-7.6,92,30.19,10.0,West,3.5,-,N/A,,Clear,260,2013-12-31 05:25:00
11:46 PM,-7.6,-9.4,92,30.18,10.0,West,4.6,-,N/A,,Clear,270,2013-12-31 05:46:00